| time (UTC) | temp F | wind direction | speed MPH | gust MPH | rain 1hr in | rain 24hr in | rain mn in | humidity % | barometer mb |
| 20260831094543 | 90 | 103 | 8.0 | 14.0 | 0.00 | 0.00 | 0.00 | 41 | 1016.8 |
| 20260831094036 | 90 | 68 | 4.0 | 17.0 | 0.00 | 0.00 | 0.00 | 42 | 1016.8 |
| 20260831093536 | 89 | 61 | 8.0 | 17.0 | 0.00 | 0.00 | 0.00 | 42 | 1016.9 |
| 20260831093047 | 89 | 88 | 7.0 | 17.0 | 0.00 | 0.00 | 0.00 | 43 | 1016.9 |
| 20260831092534 | 89 | 95 | 10.0 | 17.0 | 0.00 | 0.00 | 0.00 | 42 | 1016.9 |
| 20260831092031 | 89 | 5 | 5.0 | 14.0 | 0.00 | 0.00 | 0.00 | 42 | 1017.0 |
| 20260831091541 | 89 | 104 | 4.0 | 13.0 | 0.00 | 0.00 | 0.00 | 42 | 1017.0 |
| 20260831091031 | 89 | 55 | 6.0 | 16.0 | 0.00 | 0.00 | 0.00 | 42 | 1017.0 |
| 20260831090529 | 88 | 101 | 9.0 | 16.0 | 0.00 | 0.00 | 0.00 | 43 | 1017.1 |
| 20260831090027 | 88 | 128 | 5.0 | 14.0 | 0.00 | 0.00 | 0.00 | 43 | 1017.1 |
| 20260831085526 | 88 | 14 | 8.0 | 14.0 | 0.00 | 0.00 | 0.00 | 43 | 1017.2 |
| 20260831085024 | 88 | 50 | 9.0 | 14.0 | 0.00 | 0.00 | 0.00 | 44 | 1017.2 |
| 20260831084555 | 88 | 30 | 7.0 | 14.0 | 0.00 | 0.00 | 0.00 | 44 | 1017.2 |
| 20260831084021 | 88 | 115 | 7.0 | 12.0 | 0.00 | 0.00 | 0.00 | 44 | 1017.2 |
| 20260831083520 | 87 | 62 | 5.0 | 14.0 | 0.00 | 0.00 | 0.00 | 44 | 1017.3 |
| 20260831083019 | 87 | 65 | 7.0 | 14.0 | 0.00 | 0.00 | 0.00 | 44 | 1017.3 |
| 20260831082518 | 87 | 47 | 7.0 | 13.0 | 0.00 | 0.00 | 0.00 | 45 | 1017.3 |
| 20260831082019 | 87 | 72 | 4.0 | 16.0 | 0.00 | 0.00 | 0.00 | 46 | 1017.3 |
| 20260831081516 | 87 | 31 | 10.0 | 18.0 | 0.00 | 0.00 | 0.00 | 45 | 1017.4 |
| 20260831081015 | 86 | 75 | 10.0 | 18.0 | 0.00 | 0.00 | 0.00 | 46 | 1017.3 |
| 20260831080512 | 86 | 110 | 9.0 | 16.0 | 0.00 | 0.00 | 0.00 | 46 | 1017.2 |
| 20260831080032 | 86 | 85 | 5.0 | 15.0 | 0.00 | 0.00 | 0.00 | 47 | 1017.2 |
| 20260831075510 | 86 | 55 | 10.0 | 19.0 | 0.00 | 0.00 | 0.00 | 47 | 1017.2 |
| 20260831075009 | 86 | 61 | 12.0 | 19.0 | 0.00 | 0.00 | 0.00 | 46 | 1017.3 |
| 20260831074521 | 86 | 92 | 7.0 | 15.0 | 0.00 | 0.00 | 0.00 | 47 | 1017.2 |
| 20260831074006 | 85 | 117 | 5.0 | 16.0 | 0.00 | 0.00 | 0.00 | 48 | 1017.2 |
| 20260831073508 | 85 | 90 | 12.0 | 16.0 | 0.00 | 0.00 | 0.00 | 48 | 1017.2 |
| 20260831073003 | 85 | 56 | 9.0 | 16.0 | 0.00 | 0.00 | 0.00 | 49 | 1017.2 |
| 20260831072505 | 85 | 74 | 8.0 | 18.0 | 0.00 | 0.00 | 0.00 | 49 | 1017.2 |
| 20260831072100 | 84 | 87 | 10.0 | 18.0 | 0.00 | 0.00 | 0.00 | 49 | 1017.2 |
| 20260831071610 | 84 | 64 | 8.0 | 18.0 | 0.00 | 0.00 | 0.00 | 50 | 1017.2 |
| 20260831071057 | 84 | 88 | 12.0 | 19.0 | 0.00 | 0.00 | 0.00 | 49 | 1017.2 |
| 20260831070556 | 84 | 93 | 7.0 | 19.0 | 0.00 | 0.00 | 0.00 | 49 | 1017.1 |
| 20260831070055 | 84 | 98 | 11.0 | 17.0 | 0.00 | 0.00 | 0.00 | 49 | 1017.2 |
| 20260831065555 | 84 | 85 | 8.0 | 17.0 | 0.00 | 0.00 | 0.00 | 49 | 1017.1 |
| 20260831065052 | 84 | 107 | 7.0 | 15.0 | 0.00 | 0.00 | 0.00 | 49 | 1017.0 |
| 20260831064556 | 83 | 104 | 6.0 | 14.0 | 0.00 | 0.00 | 0.00 | 50 | 1016.9 |
| 20260831064049 | 83 | 99 | 7.0 | 13.0 | 0.00 | 0.00 | 0.00 | 52 | 1017.0 |
| 20260831063547 | 82 | 58 | 8.0 | 11.0 | 0.00 | 0.00 | 0.00 | 52 | 1017.1 |
| 20260831063102 | 82 | 115 | 4.0 | 11.0 | 0.00 | 0.00 | 0.00 | 54 | 1017.0 |
| 20260831062544 | 81 | 69 | 7.0 | 11.0 | 0.00 | 0.00 | 0.00 | 54 | 1017.0 |
| 20260831062043 | 81 | 117 | 5.0 | 14.0 | 0.00 | 0.00 | 0.00 | 55 | 1017.0 |
| 20260831061541 | 81 | 101 | 9.0 | 14.0 | 0.00 | 0.00 | 0.00 | 54 | 1017.1 |
| 20260831061039 | 81 | 100 | 8.0 | 14.0 | 0.00 | 0.00 | 0.00 | 54 | 1017.2 |
| 20260831060539 | 80 | 116 | 5.0 | 15.0 | 0.00 | 0.00 | 0.00 | 54 | 1017.2 |
| 20260831060037 | 80 | 73 | 6.0 | 15.0 | 0.00 | 0.00 | 0.00 | 55 | 1017.2 |
| 20260831055535 | 80 | 128 | 9.0 | 15.0 | 0.00 | 0.00 | 0.00 | 55 | 1017.2 |
| 20260831055036 | 80 | 84 | 9.0 | 15.0 | 0.00 | 0.00 | 0.00 | 56 | 1017.3 |
| 20260831054533 | 79 | 103 | 7.0 | 15.0 | 0.00 | 0.00 | 0.00 | 57 | 1017.3 |
| 20260831054031 | 79 | 88 | 8.0 | 17.0 | 0.00 | 0.00 | 0.00 | 57 | 1017.1 |
| 20260831053529 | 79 | 76 | 8.0 | 17.0 | 0.00 | 0.00 | 0.00 | 58 | 1017.0 |
| 20260831053028 | 79 | 98 | 11.0 | 15.0 | 0.00 | 0.00 | 0.00 | 58 | 1017.1 |
| 20260831052526 | 79 | 96 | 9.0 | 18.0 | 0.00 | 0.00 | 0.00 | 59 | 1017.0 |
| 20260831052024 | 78 | 67 | 9.0 | 18.0 | 0.00 | 0.00 | 0.00 | 59 | 1017.1 |
| 20260831051533 | 78 | 91 | 10.0 | 15.0 | 0.00 | 0.00 | 0.00 | 60 | 1017.1 |
| 20260831051021 | 78 | 83 | 8.0 | 14.0 | 0.00 | 0.00 | 0.00 | 60 | 1017.0 |
| 20260831050526 | 78 | 92 | 10.0 | 14.0 | 0.00 | 0.00 | 0.00 | 60 | 1016.9 |
| 20260831050019 | 78 | 69 | 8.0 | 14.0 | 0.00 | 0.00 | 0.00 | 60 | 1017.0 |
| 20260831045521 | 77 | 99 | 6.0 | 13.0 | 0.00 | 0.00 | 0.00 | 58 | 1017.0 |
| 20260831045016 | 77 | 84 | 3.0 | 8.0 | 0.00 | 0.00 | 0.00 | 56 | 1016.9 |
| 20260831044517 | 77 | 76 | 2.0 | 6.0 | 0.00 | 0.00 | 0.00 | 55 | 1016.8 |
| 20260831044014 | 77 | 19 | 4.0 | 8.0 | 0.00 | 0.00 | 0.00 | 55 | 1016.9 |
| 20260831043512 | 77 | 58 | 3.0 | 8.0 | 0.00 | 0.00 | 0.00 | 54 | 1016.9 |
| 20260831043011 | 77 | 15 | 2.0 | 6.0 | 0.00 | 0.00 | 0.00 | 54 | 1016.9 |
| 20260831042510 | 76 | 45 | 2.0 | 5.0 | 0.00 | 0.00 | 0.00 | 54 | 1016.8 |
| 20260831042009 | 76 | 58 | 2.0 | 8.0 | 0.00 | 0.00 | 0.00 | 55 | 1016.8 |
| 20260831041511 | 75 | 38 | 4.0 | 8.0 | 0.00 | 0.00 | 0.00 | 55 | 1016.8 |
| 20260831041009 | 75 | 36 | 3.0 | 7.0 | 0.00 | 0.00 | 0.00 | 55 | 1016.7 |
| 20260831040506 | 75 | 28 | 3.0 | 6.0 | 0.00 | 0.00 | 0.00 | 55 | 1016.8 |
| 20260831040015 | 75 | 38 | 3.0 | 6.0 | 0.00 | 0.00 | 0.00 | 55 | 1016.8 |
| 20260831035505 | 75 | 13 | 3.0 | 6.0 | 0.00 | 0.00 | 0.00 | 55 | 1016.8 |
| 20260831035005 | 75 | 5 | 4.0 | 6.0 | 0.00 | 0.00 | 0.00 | 55 | 1016.9 |
| 20260831034506 | 76 | 23 | 3.0 | 5.0 | 0.00 | 0.00 | 0.00 | 55 | 1016.8 |
| 20260831034005 | 76 | 17 | 2.0 | 5.0 | 0.00 | 0.00 | 0.00 | 54 | 1016.8 |
| 20260831033504 | 76 | 17 | 2.0 | 6.0 | 0.00 | 0.00 | 0.00 | 53 | 1016.9 |
| 20260831033007 | 77 | 36 | 3.0 | 11.0 | 0.00 | 0.00 | 0.00 | 52 | 1016.8 |
| 20260831032504 | 78 | 86 | 7.0 | 11.0 | 0.00 | 0.00 | 0.00 | 51 | 1016.8 |
| 20260831032003 | 78 | 79 | 6.0 | 10.0 | 0.00 | 0.00 | 0.00 | 51 | 1016.9 |
| 20260831031503 | 78 | 74 | 2.0 | 7.0 | 0.00 | 0.00 | 0.00 | 51 | 1016.8 |
| 20260831031003 | 78 | 101 | 3.0 | 7.0 | 0.00 | 0.00 | 0.00 | 51 | 1016.8 |
| 20260831030503 | 78 | 73 | 4.0 | 12.0 | 0.00 | 0.00 | 0.00 | 50 | 1016.7 |
| 20260831030003 | 79 | 102 | 7.0 | 14.0 | 0.00 | 0.00 | 0.00 | 50 | 1016.7 |
| 20260831025502 | 78 | 66 | 8.0 | 14.0 | 0.00 | 0.00 | 0.00 | 50 | 1016.7 |
| 20260831025002 | 78 | 143 | 8.0 | 13.0 | 0.00 | 0.00 | 0.00 | 50 | 1016.6 |
| 20260831024502 | 78 | 82 | 7.0 | 14.0 | 0.00 | 0.00 | 0.00 | 51 | 1016.6 |
| 20260831024000 | 78 | 81 | 8.0 | 14.0 | 0.00 | 0.00 | 0.00 | 51 | 1016.6 |
| 20260831023500 | 78 | 91 | 8.0 | 13.0 | 0.00 | 0.00 | 0.00 | 51 | 1016.6 |
| 20260831023104 | 78 | 64 | 9.0 | 13.0 | 0.00 | 0.00 | 0.00 | 52 | 1016.6 |
| 20260831022559 | 78 | 109 | 7.0 | 12.0 | 0.00 | 0.00 | 0.00 | 53 | 1016.6 |
| 20260831022059 | 77 | 72 | 5.0 | 10.0 | 0.00 | 0.00 | 0.00 | 53 | 1016.7 |
| 20260831021601 | 76 | 84 | 6.0 | 9.0 | 0.00 | 0.00 | 0.00 | 55 | 1016.6 |
| 20260831021059 | 76 | 73 | 3.0 | 6.0 | 0.00 | 0.00 | 0.00 | 57 | 1016.7 |
| 20260831020559 | 76 | 53 | 1.0 | 5.0 | 0.00 | 0.00 | 0.00 | 57 | 1016.8 |
| 20260831020059 | 75 | 41 | 3.0 | 6.0 | 0.00 | 0.00 | 0.00 | 57 | 1016.8 |
| 20260831015600 | 75 | 37 | 3.0 | 6.0 | 0.00 | 0.00 | 0.00 | 58 | 1016.8 |
| 20260831015058 | 75 | 30 | 4.0 | 5.0 | 0.00 | 0.00 | 0.00 | 58 | 1016.8 |
| 20260831014607 | 75 | 32 | 3.0 | 6.0 | 0.00 | 0.00 | 0.00 | 59 | 1016.8 |
| 20260831014057 | 75 | 27 | 4.0 | 6.0 | 0.00 | 0.00 | 0.00 | 59 | 1016.8 |
| 20260831013556 | 75 | 32 | 3.0 | 5.0 | 0.00 | 0.00 | 0.00 | 59 | 1016.8 |
| 20260831013057 | 75 | 31 | 3.0 | 8.0 | 0.00 | 0.00 | 0.00 | 59 | 1016.8 |
| 20260831012556 | 75 | 46 | 4.0 | 9.0 | 0.00 | 0.00 | 0.00 | 59 | 1016.8 |
| 20260831012054 | 75 | 38 | 5.0 | 9.0 | 0.00 | 0.00 | 0.00 | 58 | 1016.9 |
| 20260831011559 | 75 | 57 | 4.0 | 8.0 | 0.00 | 0.00 | 0.00 | 58 | 1016.8 |
| 20260831011052 | 76 | 32 | 4.0 | 9.0 | 0.00 | 0.00 | 0.00 | 58 | 1016.9 |
| 20260831010553 | 76 | 33 | 6.0 | 9.0 | 0.00 | 0.00 | 0.00 | 57 | 1017.0 |
| 20260831005550 | 78 | 69 | 3.0 | 9.0 | 0.00 | 0.00 | 0.00 | 54 | 1017.0 |
| 20260831005049 | 78 | 110 | 3.0 | 11.0 | 0.00 | 0.00 | 0.00 | 54 | 1017.0 |
| 20260831004549 | 78 | 97 | 5.0 | 11.0 | 0.00 | 0.00 | 0.00 | 55 | 1017.0 |
| 20260831004049 | 78 | 109 | 4.0 | 12.0 | 0.00 | 0.00 | 0.00 | 55 | 1016.9 |
| 20260831003550 | 78 | 106 | 7.0 | 13.0 | 0.00 | 0.00 | 0.00 | 55 | 1017.0 |
| 20260831003050 | 78 | 98 | 8.0 | 13.0 | 0.00 | 0.00 | 0.00 | 56 | 1017.1 |
| 20260831002547 | 77 | 87 | 5.0 | 9.0 | 0.00 | 0.00 | 0.00 | 57 | 1017.1 |
| 20260831002048 | 77 | 52 | 3.0 | 7.0 | 0.00 | 0.00 | 0.00 | 58 | 1017.1 |
| 20260831001546 | 77 | 53 | 3.0 | 8.0 | 0.00 | 0.00 | 0.00 | 57 | 1017.1 |
| 20260831001046 | 77 | 61 | 4.0 | 8.0 | 0.00 | 0.00 | 0.00 | 57 | 1017.2 |
| 20260831000546 | 77 | 55 | 2.0 | 6.0 | 0.00 | 0.00 | 0.00 | 57 | 1017.2 |
| 20260831000046 | 77 | 46 | 2.0 | 5.0 | 0.00 | 0.00 | 0.00 | 57 | 1017.2 |
| 20260830235548 | 77 | 19 | 1.0 | 3.0 | 0.00 | 0.00 | 0.00 | 57 | 1017.1 |
| 20260830235048 | 77 | 348 | 0.0 | 3.0 | 0.00 | 0.00 | 0.00 | 57 | 1017.2 |
| 20260830234546 | 77 | 355 | 0.0 | 4.0 | 0.00 | 0.00 | 0.00 | 57 | 1017.2 |
| 20260830234044 | 77 | 350 | 2.0 | 4.0 | 0.00 | 0.00 | 0.00 | 57 | 1017.1 |
| 20260830233544 | 78 | 355 | 3.0 | 5.0 | 0.00 | 0.00 | 0.00 | 56 | 1017.3 |
| 20260830233045 | 78 | 15 | 3.0 | 5.0 | 0.00 | 0.00 | 0.00 | 56 | 1017.2 |
| 20260830232543 | 78 | 360 | 3.0 | 5.0 | 0.00 | 0.00 | 0.00 | 56 | 1017.2 |
| 20260830232043 | 78 | 5 | 3.0 | 5.0 | 0.00 | 0.00 | 0.00 | 56 | 1017.2 |
| 20260830231543 | 78 | 46 | 0.0 | 2.0 | 0.00 | 0.00 | 0.00 | 56 | 1017.2 |
| 20260830231043 | 78 | 46 | 0.0 | 2.0 | 0.00 | 0.00 | 0.00 | 56 | 1017.2 |
| 20260830230542 | 78 | 46 | 0.0 | 2.0 | 0.00 | 0.00 | 0.00 | 56 | 1017.3 |
| 20260830230042 | 78 | 45 | 0.0 | 3.0 | 0.00 | 0.00 | 0.00 | 56 | 1017.3 |
| 20260830225541 | 78 | 40 | 1.0 | 5.0 | 0.00 | 0.00 | 0.00 | 55 | 1017.4 |
| 20260830225041 | 78 | 40 | 2.0 | 5.0 | 0.00 | 0.00 | 0.00 | 56 | 1017.3 |
| 20260830224542 | 77 | 55 | 2.0 | 5.0 | 0.00 | 0.00 | 0.00 | 56 | 1017.3 |
| 20260830224042 | 77 | 55 | 2.0 | 6.0 | 0.00 | 0.00 | 0.00 | 56 | 1017.3 |
| 20260830223540 | 77 | 28 | 4.0 | 6.0 | 0.00 | 0.00 | 0.00 | 55 | 1017.4 |
| 20260830223039 | 77 | 5 | 3.0 | 5.0 | 0.00 | 0.00 | 0.00 | 55 | 1017.5 |
| 20260830222538 | 77 | 5 | 2.0 | 4.0 | 0.00 | 0.00 | 0.00 | 55 | 1017.5 |
| 20260830222038 | 77 | 5 | 1.0 | 2.0 | 0.00 | 0.00 | 0.00 | 54 | 1017.5 |
| 20260830221540 | 78 | 5 | 1.0 | 3.0 | 0.00 | 0.00 | 0.00 | 53 | 1017.6 |
| 20260830221037 | 78 | 9 | 1.0 | 5.0 | 0.00 | 0.00 | 0.00 | 52 | 1017.6 |
| 20260830220537 | 78 | 5 | 2.0 | 5.0 | 0.00 | 0.00 | 0.00 | 52 | 1017.6 |
| 20260830220037 | 78 | 13 | 1.0 | 5.0 | 0.00 | 0.00 | 0.00 | 52 | 1017.6 |
| 20260830215536 | 78 | 40 | 2.0 | 5.0 | 0.00 | 0.00 | 0.00 | 51 | 1017.6 |
| 20260830215036 | 78 | 38 | 3.0 | 5.0 | 0.00 | 0.00 | 0.00 | 51 | 1017.6 |
| 20260830214535 | 78 | 82 | 2.0 | 5.0 | 0.00 | 0.00 | 0.00 | 52 | 1017.6 |
| 20260830214035 | 78 | 59 | 1.0 | 4.0 | 0.00 | 0.00 | 0.00 | 52 | 1017.8 |
| 20260830213637 | 77 | 58 | 1.0 | 5.0 | 0.00 | 0.00 | 0.00 | 53 | 1017.6 |
| 20260830213034 | 77 | 65 | 2.0 | 6.0 | 0.00 | 0.00 | 0.00 | 53 | 1017.6 |
| 20260830212533 | 77 | 52 | 4.0 | 6.0 | 0.00 | 0.00 | 0.00 | 53 | 1017.6 |
| 20260830212032 | 77 | 16 | 3.0 | 5.0 | 0.00 | 0.00 | 0.00 | 53 | 1017.6 |
| 20260830210529 | 78 | 74 | 2.0 | 4.0 | 0.00 | 0.00 | 0.00 | 52 | 1017.6 |
| 20260830210031 | 78 | 47 | 1.0 | 5.0 | 0.00 | 0.00 | 0.00 | 52 | 1017.6 |
| 20260830205528 | 78 | 47 | 2.0 | 5.0 | 0.00 | 0.00 | 0.00 | 52 | 1017.6 |
| 20260830205029 | 78 | 69 | 2.0 | 8.0 | 0.00 | 0.00 | 0.00 | 53 | 1017.6 |
| 20260830204528 | 78 | 76 | 4.0 | 8.0 | 0.00 | 0.00 | 0.00 | 52 | 1017.6 |
| 20260830204028 | 78 | 65 | 3.0 | 8.0 | 0.00 | 0.00 | 0.00 | 53 | 1017.6 |
| 20260830203528 | 78 | 5 | 4.0 | 8.0 | 0.00 | 0.00 | 0.00 | 52 | 1017.7 |
| 20260830203027 | 79 | 5 | 3.0 | 8.0 | 0.00 | 0.00 | 0.00 | 52 | 1017.5 |
| 20260830202527 | 79 | 43 | 4.0 | 8.0 | 0.00 | 0.00 | 0.00 | 51 | 1017.5 |
| 20260830202030 | 80 | 22 | 2.0 | 4.0 | 0.00 | 0.00 | 0.00 | 50 | 1017.4 |
| 20260830201526 | 80 | 59 | 3.0 | 6.0 | 0.00 | 0.00 | 0.00 | 50 | 1017.4 |
| 20260830201026 | 80 | 61 | 1.0 | 4.0 | 0.00 | 0.00 | 0.00 | 50 | 1017.3 |
| 20260830200526 | 79 | 46 | 1.0 | 6.0 | 0.00 | 0.00 | 0.00 | 51 | 1017.3 |
| 20260830200027 | 80 | 52 | 3.0 | 6.0 | 0.00 | 0.00 | 0.00 | 51 | 1017.2 |
| 20260830195526 | 80 | 18 | 3.0 | 6.0 | 0.00 | 0.00 | 0.00 | 50 | 1017.2 |
| 20260830195026 | 80 | 50 | 3.0 | 6.0 | 0.00 | 0.00 | 0.00 | 49 | 1017.2 |
| 20260830194526 | 80 | 51 | 2.0 | 10.0 | 0.00 | 0.00 | 0.00 | 50 | 1017.3 |
| 20260830194026 | 80 | 67 | 4.0 | 10.0 | 0.00 | 0.00 | 0.00 | 50 | 1017.3 |
| 20260830193525 | 79 | 48 | 3.0 | 10.0 | 0.00 | 0.00 | 0.00 | 51 | 1017.2 |
| 20260830193025 | 79 | 35 | 4.0 | 10.0 | 0.00 | 0.00 | 0.00 | 51 | 1017.2 |
| 20260830192525 | 79 | 46 | 4.0 | 9.0 | 0.00 | 0.00 | 0.00 | 51 | 1017.1 |
| 20260830192025 | 80 | 32 | 4.0 | 9.0 | 0.00 | 0.00 | 0.00 | 51 | 1017.1 |
| 20260830191525 | 80 | 20 | 5.0 | 9.0 | 0.00 | 0.00 | 0.00 | 51 | 1017.1 |
| 20260830191027 | 80 | 16 | 5.0 | 9.0 | 0.00 | 0.00 | 0.00 | 50 | 1017.2 |
| 20260830190524 | 81 | 39 | 5.0 | 8.0 | 0.00 | 0.00 | 0.00 | 50 | 1017.2 |
| 20260830190026 | 81 | 9 | 3.0 | 10.0 | 0.00 | 0.00 | 0.00 | 49 | 1017.1 |
| 20260830185524 | 81 | 57 | 5.0 | 10.0 | 0.00 | 0.00 | 0.00 | 49 | 1017.1 |
| 20260830185027 | 80 | 59 | 5.0 | 7.0 | 0.00 | 0.00 | 0.00 | 51 | 1017.1 |
| 20260830184524 | 80 | 25 | 4.0 | 6.0 | 0.00 | 0.00 | 0.00 | 51 | 1017.0 |
| 20260830184025 | 80 | 27 | 4.0 | 6.0 | 0.00 | 0.00 | 0.00 | 51 | 1017.0 |
| 20260830183523 | 80 | 28 | 4.0 | 7.0 | 0.00 | 0.00 | 0.00 | 52 | 1016.9 |
| 20260830183032 | 80 | 46 | 3.0 | 8.0 | 0.00 | 0.00 | 0.00 | 51 | 1016.8 |
| 20260830182523 | 81 | 10 | 4.0 | 8.0 | 0.00 | 0.00 | 0.00 | 51 | 1016.8 |
| 20260830182026 | 81 | 20 | 4.0 | 7.0 | 0.00 | 0.00 | 0.00 | 51 | 1016.7 |
| 20260830181523 | 81 | 41 | 3.0 | 7.0 | 0.00 | 0.00 | 0.00 | 51 | 1016.8 |
| 20260830181022 | 81 | 61 | 4.0 | 8.0 | 0.00 | 0.00 | 0.00 | 50 | 1016.8 |
| 20260830180522 | 82 | 26 | 3.0 | 7.0 | 0.00 | 0.00 | 0.00 | 50 | 1016.7 |
| 20260830180032 | 82 | 30 | 4.0 | 9.0 | 0.00 | 0.00 | 0.00 | 50 | 1016.6 |
| 20260830175522 | 82 | 17 | 5.0 | 9.0 | 0.00 | 0.00 | 0.00 | 50 | 1016.6 |
| 20260830175022 | 82 | 51 | 4.0 | 6.0 | 0.00 | 0.00 | 0.00 | 49 | 1016.6 |
| 20260830174527 | 83 | 39 | 3.0 | 6.0 | 0.00 | 0.00 | 0.00 | 48 | 1016.6 |
| 20260830174021 | 83 | 23 | 3.0 | 9.0 | 0.00 | 0.00 | 0.00 | 47 | 1016.6 |
| 20260830173521 | 83 | 10 | 3.0 | 9.0 | 0.00 | 0.00 | 0.00 | 47 | 1016.5 |
| 20260830173021 | 83 | 51 | 4.0 | 10.0 | 0.00 | 0.00 | 0.00 | 47 | 1016.4 |
| 20260830172522 | 83 | 76 | 5.0 | 12.0 | 0.00 | 0.00 | 0.00 | 48 | 1016.3 |
| 20260830172022 | 83 | 68 | 7.0 | 12.0 | 0.00 | 0.00 | 0.00 | 48 | 1016.2 |
| 20260830171522 | 83 | 44 | 6.0 | 11.0 | 0.00 | 0.00 | 0.00 | 48 | 1016.2 |
| 20260830171021 | 84 | 66 | 4.0 | 9.0 | 0.00 | 0.00 | 0.00 | 48 | 1016.1 |
| 20260830170523 | 84 | 50 | 4.0 | 9.0 | 0.00 | 0.00 | 0.00 | 48 | 1016.2 |
| 20260830170021 | 84 | 80 | 2.0 | 7.0 | 0.00 | 0.00 | 0.00 | 49 | 1016.2 |
| 20260830165520 | 84 | 89 | 2.0 | 4.0 | 0.00 | 0.00 | 0.00 | 51 | 1016.2 |
| 20260830165020 | 84 | 82 | 0.0 | 6.0 | 0.00 | 0.00 | 0.00 | 57 | 1016.3 |
| 20260830164519 | 84 | 94 | 2.0 | 6.0 | 0.00 | 0.00 | 0.00 | 57 | 1016.3 |
| 20260830164021 | 84 | 153 | 1.0 | 9.0 | 0.00 | 0.00 | 0.00 | 55 | 1016.3 |
| 20260830163519 | 85 | 147 | 4.0 | 9.0 | 0.00 | 0.00 | 0.00 | 55 | 1016.3 |
| 20260830163118 | 85 | 162 | 3.0 | 7.0 | 0.00 | 0.00 | 0.00 | 55 | 1016.3 |
| 20260830162518 | 85 | 214 | 5.0 | 9.0 | 0.00 | 0.00 | 0.00 | 55 | 1016.2 |
| 20260830162019 | 85 | 181 | 2.0 | 8.0 | 0.00 | 0.00 | 0.00 | 54 | 1016.2 |
| 20260830161517 | 85 | 315 | 2.0 | 7.0 | 0.00 | 0.00 | 0.00 | 55 | 1016.2 |
| 20260830161019 | 85 | 264 | 4.0 | 10.0 | 0.00 | 0.00 | 0.00 | 55 | 1016.2 |
| 20260830160518 | 85 | 263 | 6.0 | 10.0 | 0.00 | 0.00 | 0.00 | 54 | 1016.2 |
| 20260830160035 | 86 | 273 | 5.0 | 10.0 | 0.00 | 0.00 | 0.00 | 53 | 1016.2 |
| 20260830155517 | 86 | 244 | 5.0 | 10.0 | 0.00 | 0.00 | 0.00 | 52 | 1016.1 |
| 20260830155017 | 86 | 213 | 5.0 | 10.0 | 0.00 | 0.00 | 0.00 | 52 | 1016.0 |
| 20260830154518 | 86 | 214 | 7.0 | 11.0 | 0.00 | 0.00 | 0.00 | 52 | 1016.0 |
| 20260830154020 | 87 | 200 | 8.0 | 11.0 | 0.00 | 0.00 | 0.00 | 51 | 1015.9 |
| 20260830153518 | 88 | 194 | 5.0 | 10.0 | 0.00 | 0.00 | 0.00 | 50 | 1015.9 |
| 20260830153016 | 88 | 248 | 4.0 | 10.0 | 0.00 | 0.00 | 0.00 | 50 | 1015.8 |
| 20260830152514 | 87 | 273 | 5.0 | 10.0 | 0.00 | 0.00 | 0.00 | 50 | 1015.8 |
| 20260830152014 | 88 | 232 | 5.0 | 8.0 | 0.00 | 0.00 | 0.00 | 49 | 1015.7 |
| 20260830151513 | 89 | 309 | 2.0 | 8.0 | 0.00 | 0.00 | 0.00 | 47 | 1015.8 |
| 20260830151013 | 89 | 221 | 4.0 | 8.0 | 0.00 | 0.00 | 0.00 | 46 | 1015.7 |
| 20260830150512 | 90 | 303 | 3.0 | 6.0 | 0.00 | 0.00 | 0.00 | 44 | 1015.7 |
| 20260830150016 | 89 | 30 | 1.0 | 8.0 | 0.00 | 0.00 | 0.00 | 43 | 1015.8 |
| 20260830145510 | 90 | 109 | 2.0 | 8.0 | 0.00 | 0.00 | 0.00 | 42 | 1015.7 |
| 20260830145010 | 90 | 64 | 2.0 | 9.0 | 0.00 | 0.00 | 0.00 | 42 | 1015.7 |
| 20260830144508 | 90 | 56 | 5.0 | 9.0 | 0.00 | 0.00 | 0.00 | 41 | 1015.6 |
| 20260830144008 | 90 | 49 | 2.0 | 8.0 | 0.00 | 0.00 | 0.00 | 41 | 1015.6 |
| 20260830143508 | 90 | 111 | 0.0 | 9.0 | 0.00 | 0.00 | 0.00 | 41 | 1015.7 |
| 20260830143013 | 90 | 29 | 3.0 | 9.0 | 0.00 | 0.00 | 0.00 | 41 | 1015.7 |
| 20260830142510 | 90 | 133 | 1.0 | 7.0 | 0.00 | 0.00 | 0.00 | 41 | 1015.7 |
| 20260830142006 | 91 | 41 | 2.0 | 7.0 | 0.00 | 0.00 | 0.00 | 41 | 1015.6 |
| 20260830141504 | 90 | 110 | 3.0 | 6.0 | 0.00 | 0.00 | 0.00 | 42 | 1015.7 |
| 20260830141003 | 89 | 218 | 1.0 | 3.0 | 0.00 | 0.00 | 0.00 | 42 | 1015.7 |
| 20260830140503 | 88 | 83 | 0.0 | 3.0 | 0.00 | 0.00 | 0.00 | 43 | 1015.8 |
| 20260830140003 | 89 | 71 | 0.0 | 8.0 | 0.00 | 0.00 | 0.00 | 42 | 1015.7 |
| 20260830135502 | 89 | 61 | 4.0 | 10.0 | 0.00 | 0.00 | 0.00 | 42 | 1015.8 |
| 20260830135002 | 89 | 82 | 6.0 | 10.0 | 0.00 | 0.00 | 0.00 | 43 | 1015.9 |
| 20260830134506 | 88 | 135 | 4.0 | 8.0 | 0.00 | 0.00 | 0.00 | 44 | 1015.8 |
| 20260830134005 | 88 | 120 | 1.0 | 5.0 | 0.00 | 0.00 | 0.00 | 44 | 1016.0 |
| 20260830133501 | 87 | 127 | 1.0 | 10.0 | 0.00 | 0.00 | 0.00 | 45 | 1016.0 |
| 20260830133101 | 87 | 51 | 3.0 | 13.0 | 0.00 | 0.00 | 0.00 | 45 | 1016.0 |
| 20260830132559 | 87 | 129 | 6.0 | 13.0 | 0.00 | 0.00 | 0.00 | 45 | 1016.0 |
| 20260830132059 | 87 | 96 | 6.0 | 16.0 | 0.00 | 0.00 | 0.00 | 45 | 1016.0 |
| 20260830131559 | 88 | 60 | 7.0 | 16.0 | 0.00 | 0.00 | 0.00 | 43 | 1015.8 |
| 20260830131159 | 89 | 123 | 5.0 | 10.0 | 0.00 | 0.00 | 0.00 | 42 | 1015.9 |
| 20260830130559 | 89 | 63 | 7.0 | 15.0 | 0.00 | 0.00 | 0.00 | 42 | 1015.9 |
| 20260830130107 | 89 | 136 | 9.0 | 15.0 | 0.00 | 0.00 | 0.00 | 41 | 1015.8 |
| 20260830125600 | 89 | 112 | 10.0 | 14.0 | 0.00 | 0.00 | 0.00 | 40 | 1015.8 |
| 20260830125058 | 90 | 30 | 8.0 | 16.0 | 0.00 | 0.00 | 0.00 | 40 | 1015.7 |
| 20260830124558 | 90 | 47 | 8.0 | 13.0 | 0.00 | 0.00 | 0.00 | 40 | 1015.8 |
| 20260830124057 | 90 | 110 | 6.0 | 12.0 | 0.00 | 0.00 | 0.00 | 40 | 1015.8 |
| 20260830123600 | 91 | 86 | 7.0 | 11.0 | 0.00 | 0.00 | 0.00 | 39 | 1015.8 |
| 20260830123056 | 91 | 113 | 2.0 | 9.0 | 0.00 | 0.00 | 0.00 | 38 | 1015.9 |
| 20260830122555 | 91 | 323 | 2.0 | 9.0 | 0.00 | 0.00 | 0.00 | 37 | 1015.9 |
| 20260830122055 | 92 | 109 | 4.0 | 11.0 | 0.00 | 0.00 | 0.00 | 37 | 1016.0 |
| 20260830121601 | 92 | 40 | 3.0 | 12.0 | 0.00 | 0.00 | 0.00 | 38 | 1016.0 |
| 20260830121051 | 92 | 84 | 6.0 | 12.0 | 0.00 | 0.00 | 0.00 | 38 | 1016.2 |
| 20260830120550 | 92 | 65 | 2.0 | 10.0 | 0.00 | 0.00 | 0.00 | 38 | 1016.1 |
| 20260830120049 | 93 | 55 | 4.0 | 10.0 | 0.00 | 0.00 | 0.00 | 36 | 1016.3 |
| 20260830115547 | 92 | 49 | 3.0 | 8.0 | 0.00 | 0.00 | 0.00 | 36 | 1016.2 |
| 20260830115045 | 92 | 343 | 0.0 | 5.0 | 0.00 | 0.00 | 0.00 | 37 | 1016.3 |
| 20260830114546 | 90 | 311 | 1.0 | 5.0 | 0.00 | 0.00 | 0.00 | 38 | 1016.3 |
| 20260830114045 | 91 | 269 | 3.0 | 5.0 | 0.00 | 0.00 | 0.00 | 37 | 1016.3 |
| 20260830113544 | 90 | 195 | 1.0 | 6.0 | 0.00 | 0.00 | 0.00 | 38 | 1016.3 |
| 20260830113043 | 90 | 173 | 2.0 | 7.0 | 0.00 | 0.00 | 0.00 | 39 | 1016.3 |
| 20260830112543 | 90 | 196 | 4.0 | 7.0 | 0.00 | 0.00 | 0.00 | 38 | 1016.3 |
| 20260830112044 | 90 | 105 | 3.0 | 9.0 | 0.00 | 0.00 | 0.00 | 37 | 1016.4 |
| 20260830111545 | 91 | 43 | 2.0 | 10.0 | 0.00 | 0.00 | 0.00 | 36 | 1016.4 |
| 20260830111044 | 91 | 105 | 1.0 | 10.0 | 0.00 | 0.00 | 0.00 | 37 | 1016.4 |
| 20260830110541 | 92 | 108 | 1.0 | 6.0 | 0.00 | 0.00 | 0.00 | 36 | 1016.5 |
| 20260830110041 | 91 | 201 | 1.0 | 8.0 | 0.00 | 0.00 | 0.00 | 36 | 1016.5 |
| 20260830105538 | 90 | 194 | 0.0 | 8.0 | 0.00 | 0.00 | 0.00 | 37 | 1016.6 |
| 20260830105037 | 90 | 116 | 1.0 | 9.0 | 0.00 | 0.00 | 0.00 | 37 | 1016.6 |
| 20260830104538 | 90 | 78 | 5.0 | 11.0 | 0.00 | 0.00 | 0.00 | 36 | 1016.6 |
| 20260830104035 | 89 | 102 | 2.0 | 9.0 | 0.00 | 0.00 | 0.00 | 37 | 1016.7 |
| 20260830103535 | 89 | 93 | 2.0 | 9.0 | 0.00 | 0.00 | 0.00 | 37 | 1016.7 |
| 20260830103039 | 90 | 98 | 5.0 | 10.0 | 0.00 | 0.00 | 0.00 | 36 | 1016.8 |
| 20260830102533 | 90 | 11 | 5.0 | 10.0 | 0.00 | 0.00 | 0.00 | 37 | 1016.9 |
| 20260830102033 | 90 | 28 | 2.0 | 9.0 | 0.00 | 0.00 | 0.00 | 36 | 1017.0 |
| 20260830101531 | 90 | 92 | 7.0 | 10.0 | 0.00 | 0.00 | 0.00 | 36 | 1017.1 |
| 20260830101031 | 90 | 94 | 6.0 | 10.0 | 0.00 | 0.00 | 0.00 | 36 | 1017.1 |
| 20260830100533 | 89 | 146 | 5.0 | 11.0 | 0.00 | 0.00 | 0.00 | 36 | 1017.2 |
| 20260830100034 | 89 | 24 | 6.0 | 13.0 | 0.00 | 0.00 | 0.00 | 37 | 1017.1 |
| 20260830095628 | 89 | 82 | 7.0 | 14.0 | 0.00 | 0.00 | 0.00 | 37 | 1017.1 |
| 20260830095027 | 88 | 106 | 7.0 | 14.0 | 0.00 | 0.00 | 0.00 | 38 | 1017.1 |